Regional Weather Roundup
Issued by NWS

Home | Current Version | Previous Version | Text Only | Print | Product List | Glossary On
Versions: 1 2 3 4 5 6 7 8 9 10 11 12 13 14 15 16 17 18 19 20 21 22 23 24 25 26 27 28 29 30 31 32 33 34 35 36 37 38 39 40 41 42 43 44 45 46 47 48 49 50
000
ASUS43 KLSX 251907
RWRMO

WEATHER SUMMARY FOR MISSOURI
NATIONAL WEATHER SERVICE SPRINGFIELD MO
200 PM CDT MON SEP 25 2017

NOTE: "FAIR" INDICATES FEW OR NO CLOUDS BELOW 12,000 FEET WITH NO
       SIGNIFICANT WEATHER AND/OR OBSTRUCTIONS TO VISIBILITY.
       CURRENT SKY AND/OR WEATHER CONDITIONS ARE NOT AVAILABLE FOR
       CHILLICOTHE AND FARMINGTON.

MOZ001>031-035>038-043-044-053-054-252000-
...NORTHERN AND WESTERN MISSOURI...

CITY           SKY/WX    TMP DP  RH WIND       PRES   REMARKS
KANSAS CTY INT MOSUNNY   83  68  60 S12       29.90F
KANSAS C DTWN  MOSUNNY   88  67  49 SE14G20   29.89F HX  91
LEE`S SUMMIT   MOSUNNY   84  66  54 S12       29.92F
ST JOSEPH      SUNNY     90  67  46 S17       29.87F HX  93
CHILLICOTHE      N/A     86  69  56 VRB3      29.91F HX  90
KIRKSVILLE     PTSUNNY   86  65  49 S10       29.93F

$$
MOZ066>068-077>081-088>096-101>105-252000-
...SOUTHWEST MISSOURI...

CITY           SKY/WX    TMP DP  RH WIND       PRES   REMARKS
SPRINGFIELD    MOSUNNY   84  63  49 SE13G22   29.95F
JOPLIN         MOSUNNY   85  66  53 SE10      29.93F
BRANSON        MOSUNNY   84  63  48 SE8G18    29.98F

$$
MOZ032>034-039>042-045>050-055>058-069>072-252000-
...CENTRAL MISSOURI...

CITY           SKY/WX    TMP DP  RH WIND       PRES   REMARKS
COLUMBIA       SUNNY     86  65  49 S5        29.95F
JEFFERSON CITY MOSUNNY   87  62  43 CALM      29.93F
ROLLA          SUNNY     87  63  44 VRB5      29.97F
SEDALIA        MOSUNNY   89  67  47 S9        29.94F HX  92
WHITEMAN AFB   MOSUNNY   86  64  48 S14       29.92F
WARRENSBURG    SUNNY     86  63  45 S10       29.92F
OSAGE BEACH    SUNNY     86  65  49 S7        29.95F

$$
MOZ051-052-059>065-252000-
...EAST CENTRAL MISSOURI...

CITY           SKY/WX    TMP DP  RH WIND       PRES   REMARKS
ST LOUIS INTL  MOSUNNY   88  64  44 VRB3      29.95F
SPIRIT OF STL  SUNNY     91  66  43 SW5       29.93F HX  93
ST CHARLES     MOSUNNY   89  64  43 VRB5      29.93F HX  90

$$
MOZ072>076-082>087-097>100-106>115-252000-
...SOUTH CENTRAL AND SOUTHEAST MISSOURI...

CITY           SKY/WX    TMP DP  RH WIND       PRES   REMARKS
CAPE GIRARDEAU MOSUNNY   89  64  43 VRB5      29.96F HX  90
FARMINGTON     PTSUNNY   89  64  43 S9        29.98F HX  90
POPLAR BLUFF   SUNNY     88  64  44 VRB3      29.95F
WEST PLAINS    MOSUNNY   87  60  40 S13       29.99F

$$



USA.gov is the U.S. government's official web portal to all federal, state and local government web resources and services.